Regional Weather Roundup
Issued by NWS

Home | Current Version | Previous Version | Text Only | Print | Product List | Glossary Off
Versions: 1 2 3 4 5 6 7 8 9 10 11 12 13 14 15 16 17 18 19 20 21 22 23 24 25 26 27 28 29 30 31 32 33 34 35 36 37 38 39 40 41 42 43 44 45 46 47 48 49 50

000
ASUS43 KFSD 290810
RWRSD

WEATHER ROUNDUP FOR SOUTH DAKOTA
NATIONAL WEATHER SERVICE SIOUX FALLS SD
200 AM CST THU JAN 29 2015

NOTE: "FAIR" INDICATES FEW OR NO CLOUDS BELOW 12,000 FEET WITH NO
SIGNIFICANT WEATHER AND/OR OBSTRUCTIONS TO VISIBILITY.


SDZ001>005-009-010-012>017-290900-
NORTHWEST AND NORTH CENTRAL SOUTH DAKOTA

CITY           SKY/WX    TMP DP  RH WIND       PRES   REMARKS
BUFFALO          N/A     33  23  66 NW25G35   30.28R WCI  20
FAITH            N/A     33  25  72 NW16      30.30R WCI  23
MOBRIDGE       CLOUDY    35  27  72 NW22      30.24R WCI  23
$$

SDZ012>016-024>037-041>051-057-063-072>074-290900-
SOUTHWEST AND SOUTH CENTRAL SOUTH DAKOTA

CITY           SKY/WX    TMP DP  RH WIND       PRES   REMARKS
RAPID CTY ARPT MOCLDY    32  25  75 N25G31    30.33S WCI  19
PIERRE         CLOUDY    36  27  69 NW21G30   30.27R
CUSTER         CLEAR     30  13  49 VRB7      30.27S WCI  23
ELLSWORTH AFB  CLOUDY    33  24  70 N21G29    30.33S WCI  21
PHILIP         CLOUDY    35  25  66 NW15      30.34R WCI  25
PINE RIDGE     CLEAR     31  23  72 N10G21    30.34R WCI  22
WINNER         CLOUDY    37  29  72 NW21G29   30.25R
$$

SDZ004>011-016>023-039-040-290900-
NORTHEAST SOUTH DAKOTA

CITY           SKY/WX    TMP DP  RH WIND       PRES   REMARKS
ABERDEEN       CLOUDY    32  26  78 N22G31    30.20R WCI  19
WATERTOWN      CLOUDY    29  25  85 NW23G32   30.09R WCI  15
SISSETON         N/A     29  25  85 N32G40    30.12R WCI  13
$$

SDZ017-020-022-023-036>040-048>070-290900-
SOUTHEAST SOUTH DAKOTA

CITY           SKY/WX    TMP DP  RH WIND       PRES   REMARKS
SIOUX FALLS    CLOUDY    32  29  88 NW23G35   30.08R WCI  19
HURON          CLOUDY    33  27  78 NW23G31   30.18R WCI  21
CHAMBERLAIN    CLOUDY    34  29  82 NW17G29   30.24R WCI  24
MITCHELL       CLOUDY    34  29  82 NW24G30   30.19R WCI  21
YANKTON        CLOUDY    36  28  75 NW22G30   30.15R
$$

ABBREVIATIONS USED IN REMARKS
   TC - TEMPERATURE IN CELSIUS
  WCI - WIND CHILL INDEX
   HX - HEAT INDEX
  VSB - VISIBILITY




USA.gov is the U.S. government's official web portal to all federal, state and local government web resources and services.